Location: Forenville
(50.1361°N, 3.2825°E)
Time: 00:56:34
(UTC+00:00)

Daily predictions for brighter satellites

Satellite Brightness Start Highest point End
(mag) Time Altitude Azimuth Time Altitude Azimuth Time Altitude Azimuth
CENTAUR R/B 4.5 02:05:13 27° NNE 02:05:13 27° NNE 02:09:51 10° NE
ACS3 Solar Sail 3.9 02:00:48 10° NE 02:03:45 20° ENE 02:03:45 20° ENE
ADEOS Rocket 4.2 02:33:21 10° NNE 02:38:46 44° ENE 02:38:46 44° ENE
BREEZE-M DEB (TANK) 4.5 02:53:28 76° SSE 02:53:28 76° SSE 03:13:07 10° ESE
Cosmos 2219 Rocket 3.7 02:55:06 32° E 02:55:06 32° E 02:58:58 10° NE
CZ-2D R/B 4.5 03:13:44 10° N 03:14:23 14° N 03:14:23 14° N
USA 267 3.4 03:13:56 10° ENE 03:20:18 66° SE 03:20:18 66° SE
Cosmos 1980 Rocket 4.4 03:27:56 15° N 03:27:56 15° N 03:29:22 10° N
H-2A R/B 3.9 03:26:28 10° NNE 03:28:05 21° NNE 03:28:05 21° NNE
USA 238 DEB 4.1 03:33:04 48° N 03:33:04 48° N 03:38:51 10° NE
USA 238 4.1 03:33:10 48° N 03:33:10 48° N 03:38:58 10° NE
Cosmos 2278 Rocket 3.6 03:29:48 23° N 03:32:19 33° NE 03:37:25 10° ESE
Cosmos 2333 Rocket 3.2 03:39:30 38° N 03:39:30 38° N 03:43:10 10° NNE
ADEOS II 4.1 03:38:44 10° N 03:39:55 16° N 03:39:55 16° N
COSMOS 2455 3.1 03:45:06 57° N 03:45:06 57° N 03:50:08 10° NNE
Lacrosse 5 rocket 3.8 03:46:58 15° NE 03:46:58 15° NE 03:47:38 10° NE
Cosmos 1153 Rocket 4.4 03:39:18 10° N 03:45:31 81° E 03:51:45 10° SSE
Cosmos 2298 Rocket 4.3 03:46:57 65° NE 03:46:57 65° NE 03:51:33 10° NNE
ACS3 Solar Sail 1.9 03:43:00 10° N 03:47:53 58° NNW 03:47:53 58° NNW
BlueWalker 3 4.1 03:53:51 21° ESE 03:53:51 21° ESE 03:55:08 10° ESE
Resurs 1-4 Rocket 4.4 03:47:41 10° N 03:48:13 12° N 03:48:13 12° N
CENTAUR R/B 4.2 03:52:18 24° NNW 03:55:40 33° NNE 04:03:20 10° ENE
Cosmos 2360 Rocket 2.7 03:59:09 45° NNW 03:59:09 45° NNW 04:03:31 10° NNE
Cosmos 2322 Rocket 2.9 03:59:32 41° NNW 03:59:32 41° NNW 04:03:42 10° NNE
USA 234 3.2 03:51:56 10° SE 03:58:26 63° SW 03:58:53 61° WSW
Gbstr 26 Del rocket 4.4 03:59:16 36° SSE 04:00:05 39° SE 04:05:21 10° ENE
SL-16 R/B 3.5 04:06:02 27° NNW 04:06:02 27° NNW 04:09:29 10° NNE
Cosmos 44 Rocket 3.3 04:05:02 79° N 04:05:16 82° NE 04:10:25 10° SE
Cosmos 1943 Rocket 2.7 04:06:17 24° NNW 04:09:32 56° NE 04:14:56 10° SE
Okean 1-7 3.5 04:13:10 50° NNE 04:13:10 50° NNE 04:16:23 10° NNE
Meteor 2-14 Rocket 4.4 04:06:01 10° S 04:12:07 82° E 04:18:14 10° NNE
H-2A R/B 4.1 04:08:26 10° NNE 04:11:15 45° NE 04:11:15 45° NE
NOSS 2-1 (C) 4.3 04:14:58 35° ESE 04:14:58 35° ESE 04:17:25 10° ENE
ARGOS 3.0 04:09:23 10° NNE 04:14:49 77° WNW 04:16:17 50° SSW
PAYLOAD A 4.1 04:10:12 10° NNE 04:15:40 83° ESE 04:20:29 13° SSW
Cosmos 1908 Rocket 4.2 04:11:30 10° N 04:15:53 54° ENE 04:20:13 10° SSE
Cosmos 1140 Rocket 3.4 04:15:55 42° NNW 04:17:44 86° ENE 04:22:50 10° SSE
NOSS 2-1 (D) 4.1 04:19:05 40° E 04:19:05 40° E 04:21:31 10° NE
Timation 2 Rocket 4.1 04:14:48 21° NNW 04:19:31 84° ENE 04:25:58 10° SSE
CZ-2C R/B 2.3 04:15:11 10° NNE 04:20:10 78° WNW 04:21:33 49° SSW
Cosmos 1809 Rocket 4.3 04:17:58 10° SSW 04:24:04 80° W 04:30:12 10° N
ADEOS Rocket 3.5 04:19:04 10° N 04:25:04 43° WNW 04:25:40 42° WNW
NOSS 3-1 (C) 3.1 04:27:25 35° SSW 04:29:27 73° SE 04:35:11 10° NE
Iridium 4 Rocket 3.9 04:26:58 10° N 04:31:16 49° E 04:35:19 10° SSE
SJ 16-02 3.7 04:28:20 10° N 04:31:35 20° NE 04:34:48 10° E
Cosmos 2100 Rocket 3.8 04:25:31 10° NNW 04:31:39 75° W 04:37:47 10° S
Cosmos 2219 Rocket 2.4 04:36:49 43° WNW 04:37:39 46° NW 04:43:08 10° NNE
IRS-1D 4.0 04:35:17 10° NNE 04:40:13 57° ESE 04:45:03 10° S
SL-24 R/B - RUBIN 2 4.0 04:39:23 46° W 04:40:34 57° NW 04:45:23 10° NE
Cosmos 1707 Rocket 4.4 04:42:43 33° NNW 04:42:43 33° NNW 04:45:34 10° N
TIMED 4.3 04:40:17 41° NNW 04:41:44 80° WSW 04:45:59 10° SSE
NOSS 0 Rocket 4.5 04:38:01 10° SSW 04:44:00 60° ESE 04:50:04 10° NE
COSMOS 2428 2.6 04:41:43 10° SSW 04:47:25 90° W 04:53:09 10° NNE
USA 59 Rocket -1.0 04:50:48 78° WNW 04:50:51 79° NW 04:53:49 10° NE
SL-08 RB Rocket 3.9 04:47:21 10° N 04:51:45 48° WNW 04:53:29 31° WSW
Cosmos 1459 Rocket 4.0 04:46:35 10° NNW 04:52:50 59° W 04:59:02 10° S
Cosmos 1864 Rocket 4.4 04:47:30 10° NNW 04:53:46 75° W 05:00:04 10° S
Cosmos 2322 3.6 04:50:01 14° SW 04:54:55 72° WNW 05:00:36 10° NNE
FengYun 1-2 T 4.2 04:51:12 10° NNE 04:56:46 84° WNW 05:02:22 10° SSW
COSMO-SKYMED 1 2.6 04:55:01 10° SSE 04:59:07 74° ENE 05:03:15 10° N
Cosmos 407 Rocket 3.3 04:54:47 11° NNW 04:59:41 81° WSW 05:04:46 10° SSE
Meteor 2-21 4.4 04:53:45 10° SSW 04:59:45 60° WNW 05:05:47 10° N
SKYMED 2 3.4 04:56:05 10° S 05:00:26 80° WSW 05:04:49 10° NNW
Cosmos 1727 Rocket 4.2 04:56:33 10° SW 05:02:24 44° WNW 05:08:21 10° N
Cosmos 1725 Rocket 3.9 04:57:00 10° NNW 05:03:18 71° W 05:09:35 10° S
USA 267 3.4 04:57:03 10° ENE 05:03:29 62° NNW 05:07:39 23° W
Cosmos 2228 Rocket 3.7 05:03:28 33° WNW 05:03:32 33° WNW 05:07:32 10° N
Cosmos 1980 4.2 05:01:39 10° SSW 05:07:13 64° ESE 05:12:50 10° NE
H-2A R/B 3.8 05:07:17 10° NNW 05:08:34 13° NW 05:08:34 13° NW
Cosmos 1802 Rocket 4.1 05:04:56 10° NNW 05:11:10 57° W 05:17:17 10° SSW
NOSS 3-1 (A) 3.3 05:08:56 10° SSW 05:13:36 67° SE 05:19:20 10° NE
Cosmos 2233 Rocket 4.0 05:08:12 10° N 05:14:33 83° W 05:20:50 10° S
Cosmos 1328 3.9 05:13:06 10° SSW 05:16:33 40° WNW 05:20:03 10° N
Cosmos 2278 Rocket 2.3 05:11:40 13° NW 05:16:39 54° WSW 05:22:08 10° S
Cosmos 1703 Rocket 3.6 05:13:42 10° SSW 05:17:57 53° WNW 05:22:17 10° N
Cosmos 2251 Rocket 3.6 05:13:08 10° NNW 05:18:32 84° ENE 05:23:54 10° SSE
CZ-3 R/B 4.3 05:17:40 10° SSW 05:20:37 11° S 05:22:56 10° S
NOSS 2-1 (E) 2.8 05:18:52 24° WSW 05:20:40 56° NW 05:23:41 10° NE
Cosmos 1939 Rocket 3.5 05:17:35 10° N 05:21:01 31° WNW 05:23:42 14° SW
Lacrosse 5 rocket 2.3 05:20:39 21° NW 05:21:52 25° N 05:24:44 10° NE
Cosmos 2173 Rocket 4.5 05:16:35 10° NNW 05:21:59 34° W 05:27:21 10° SSW
Meteor 2-16 Rocket 4.4 05:16:17 10° SSW 05:22:21 66° WNW 05:28:28 10° N
Cosmos 2333 Rocket 3.8 05:21:32 16° NW 05:23:05 17° NNW 05:26:48 10° N
Cosmos 2237 Rocket 2.4 05:17:49 10° SSW 05:23:28 77° ESE 05:29:09 10° NNE
USA-17 4.1 05:22:08 26° NW 05:23:44 69° SW 05:27:02 10° SE
SL-08 R/B 4.5 05:19:24 10° NNW 05:25:23 60° W 05:31:26 10° S
Cosmos 2292 Rocket 3.8 05:24:09 10° SSW 05:28:24 63° WNW 05:33:56 10° N
BlueWalker 3 3.4 05:27:40 18° WSW 05:28:40 20° SW 05:31:21 10° S
USA 276 4.1 05:29:39 11° SW 05:29:51 11° SW 05:30:44 10° SSW
ACS3 Solar Sail 3.2 05:27:30 10° NNW 05:31:00 16° NW 05:32:02 16° WNW
COSMOS 2455 4.1 05:28:15 17° WNW 05:31:10 23° NNW 05:35:54 10° NNE
Meteor 1-24 Rocket 3.9 05:27:37 10° SW 05:33:10 47° WNW 05:38:32 10° N
Helios 1A Rocket 3.2 05:30:36 10° SSW 05:33:38 30° W 05:36:22 12° NW
Cosmos 2369 Rocket 3.4 05:29:04 10° NNW 05:34:25 40° NE 05:39:45 10° ESE
Cosmos 2242 Rocket 4.3 05:30:12 10° S 05:34:28 56° E 05:38:47 10° NNE
CZ-4 R/B 4.0 05:30:46 10° N 05:35:34 54° WNW 05:40:15 10° SW
Cosmos 1782 Rocket 3.8 05:33:30 10° NNW 05:37:43 45° W 05:41:52 10° SSW
Cosmos 2360 Rocket 3.8 05:40:55 13° WNW 05:43:16 16° NNW 05:46:43 10° N
Cosmos 2322 Rocket 3.9 05:41:21 12° NW 05:43:40 15° NNW 05:46:55 10° N
Cosmos 2123 Rocket 4.4 05:38:08 10° SW 05:43:56 40° WNW 05:49:45 10° N
Meteor 2-5 Rocket 4.1 05:38:45 10° SW 05:44:23 44° WNW 05:49:58 10° N
NOAA 12 4.2 05:39:39 10° N 05:44:50 54° WNW 05:50:00 10° SW
Cosmos 1420 Rocket 4.1 05:40:21 10° SSW 05:45:37 87° ESE 05:50:57 10° NNE
Gbstr 26 Del rocket 3.7 05:41:19 11° WSW 05:46:16 88° N 05:52:40 10° ENE
CENTAUR R/B 3.7 05:40:07 10° NW 05:47:55 60° NE 05:57:03 10° ESE
ARIANE 5 R/B 4.3 05:45:40 10° NNE 05:50:19 36° E 05:54:59 10° SSE
SL-16 R/B 4.2 05:48:51 10° NW 05:50:33 11° NNW 05:52:14 10° N
Cosmos 1943 Rocket 3.0 05:48:18 10° NW 05:52:55 28° WSW 05:57:30 10° SSW
Cosmos 1812 1.9 05:53:49 10° N 05:56:47 89° SSW 05:59:42 10° S
CZ-2C R/B 4.1 05:54:47 10° NNW 05:57:28 15° NW 06:00:10 10° W
Cosmos 1300 Rocket 4.5 05:54:26 10° NNW 05:58:03 26° W 06:01:37 10° SW
SMAP 4.0 05:54:38 10° NNE 05:59:13 53° E 06:03:46 10° S
CZ-2D R/B 4.3 05:58:53 10° NNE 06:01:55 40° E 06:04:56 10° S
Cosmos 2346 Rocket 4.5 05:56:24 10° SSW 06:02:31 66° WNW 06:08:37 10° N
NOSS 2-1 (C) 4.0 06:00:51 10° W 06:03:29 22° NW 06:05:55 10° NNE
NOSS 2-1 (D) 4.2 06:05:04 10° W 06:07:31 20° NNW 06:09:50 10° NNE
SJ 16-02 1.4 06:05:51 10° NNW 06:10:05 57° WSW 06:14:16 10° S
Iridium 4 Rocket 4.4 06:07:38 10° NW 06:10:35 18° WNW 06:13:26 10° WSW
Aureole 3 Rocket 3.5 06:06:58 10° NNW 06:11:05 55° W 06:16:41 10° S
Okean 1 Rocket 3.9 06:07:07 10° N 06:11:24 53° ENE 06:15:38 10° SSE
CBERS-1 4.0 06:09:53 10° NNE 06:15:00 71° WNW 06:20:05 10° SSW
